CAPE
1318 1061 970 970 780 454 267 169 168 200 232 316 281 329 376 390 520 599 714 878 985 1125 1193 1248 1305 1327 1281 1336 1488 1456 1178 1321 1571 1703 1416 1210 860 770 855 683 798 920
1211 1094 1009 1023 1064 750 380 126 138 175 182 238 284 298 322 412 480 646 771 782 849 994 1011 1100 1156 1204 1250 1214 1226 1262 1335 1395 1312 1162 1334 1231 676 1304 1159 804 855 896
958 1016 878 692 618 588 508 259 136 189 203 196 219 339 317 436 529 686 798 755 821 824 946 903 868 821 842 915 960 962 1000 1098 1204 1126 1217 1386 1514 1057 1125 1030 1109 908
834 828 710 546 505 428 504 524 481 406 347 362 390 407 366 468 624 654 713 741 788 1020 1112 1108 1061 970 844 752 696 696 786 766 797 896 917 971 1303 1334 1258 930 974 722
788 708 604 488 486 528 553 493 400 394 386 457 543 568 533 636 660 664 739 753 1077 1122 1112 1185 1112 961 905 816 761 744 691 756 779 832 828 846 978 1023 1020 1072 1036 869
776 494 411 432 454 461 514 467 410 392 384 463 680 551 605 636 760 732 795 1000 1107 1072 1115 1090 994 941 882 790 739 767 708 664 696 733 790 778 752 826 864 900 910 870
603 578 502 417 460 490 601 564 540 494 481 525 599 704 635 670 751 888 1085 1111 1200 1146 1120 1068 1032 946 914 897 820 751 729 720 743 697 724 732 844 783 719 747 798 874
440 357 372 428 526 809 819 761 632 596 563 605 664 829 873 757 858 943 996 1022 952 1083 1116 1134 1139 1149 1012 948 691 655 678 625 673 584 556 606 742 804 776 612 655 796
527 390 413 619 726 886 769 675 515 579 650 637 690 657 793 960 950 994 1098 965 989 1021 1086 1143 1329 1241 1204 1055 687 540 560 574 476 472 478 431 391 404 568 684 652 524
470 466 529 494 474 745 792 700 538 682 852 886 883 904 921 962 1113 1098 1080 1073 1153 1234 1229 1079 1108 970 1079 1101 955 744 538 499 462 413 405 349 298 256 182 413 607 655
378 394 351 409 550 396 452 446 534 604 751 911 962 1016 986 970 1033 1047 998 1148 1244 1267 1209 978 708 746 791 838 740 705 593 438 356 287 277 260 229 216 132 204 230 483
403 476 413 426 443 477 599 757 998 1200 1124 906 962 928 1038 1116 1160 1115 1159 1226 1340 1384 1249 1153 927 925 1018 883 855 860 582 455 260 206 96 101 131 166 254 355 326 183
309 470 561 406 620 702 804 760 986 944 803 815 832 906 955 1145 1273 1282 1252 1331 1378 1395 1323 1376 1432 1370 1258 1011 964 850 558 512 407 124 98 66 58 38 24 48 222 401
379 604 653 711 729 918 1047 1230 1268 1294 1228 1158 1090 1031 1065 1226 1315 1404 1378 1365 1414 1422 1312 1320 1437 1384 1313 1088 904 805 630 557 416 166 89 34 21 18 11 9 12 92
631 666 682 755 856 992 1138 1244 1264 1267 1216 1127 1163 1262 1257 1312 1317 1326 1419 1469 1494 1520 1528 1404 1362 1406 1299 1040 813 693 668 435 287 106 50 26 21 16 14 12 11 15
714 743 794 932 1035 1147 1183 1166 1042 1089 1025 1065 1192 1226 1311 1410 1517 1506 1412 1362 1387 1454 1574 1588 1484 1487 1170 597 294 501 490 300 112 80 72 33 44 41 25 16 16 16
738 926 979 1031 1209 1216 1142 1095 986 932 985 1220 1372 1479 1571 1558 1586 1528 1380 1328 1325 1414 1504 1597 1476 1427 865 430 225 222 279 180 88 62 46 34 46 50 22 17 12 11
856 992 1002 1096 1262 1232 1078 918 764 856 1080 1325 1416 1586 1681 1688 1724 1593 1487 1430 1361 1406 1480 1660 1598 1256 820 405 216 203 155 81 113 90 46 26 18 7 10 12 10 8
921 894 912 1031 1210 1186 930 759 785 1001 1215 1384 1429 1462 1622 1755 1598 1539 1524 1521 1534 1626 1672 1669 1652 1439 758 368 173 178 180 83 110 96 43 23 12 1 4 7 14 12
884 884 870 1072 1154 1020 778 790 1028 1160 1260 1293 1426 1641 1734 1702 1702 1698 1711 1759 1736 1807 1816 1755 1800 1500 724 334 153 218 217 119 154 67 32 18 26 11 21 28 12 16
813 899 937 1068 1061 917 849 972 1185 1282 1348 1376 1442 1556 1561 1526 1598 1496 1500 1527 1681 1746 1728 1710 1759 1188 579 328 216 342 328 129 223 89 70 49 55 38 12 4 4 18
833 852 1070 1066 933 961 1102 1158 1297 1440 1429 1465 1434 1391 1538 1644 1648 1640 1592 1545 1566 1707 1678 1520 1325 1160 588 342 344 538 455 242 205 108 72 50 44 60 40 18 4 13
994 918 1022 1082 1022 1065 1078 960 1088 1223 1310 1434 1350 1233 1358 1530 1571 1442 1610 1546 1520 1476 1470 1288 1172 1400 804 389 319 480 356 340 272 186 140 120 52 53 80 62 22 13
1085 960 970 1055 1158 1100 831 790 826 1182 1357 1378 1242 1035 965 1012 1138 1345 1598 1708 1469 1306 952 843 818 1179 978 528 285 348 341 262 282 245 206 190 154 101 82 94 71 13
1003 1048 1012 1025 1246 1109 938 852 936 1047 1110 1256 1076 984 1043 1320 1368 1418 1445 1397 1063 1114 905 664 710 954 1218 682 341 326 360 261 304 267 248 232 208 172 155 124 122 81
971 1050 1198 1266 1382 1359 1242 1104 1129 1059 933 736 924 840 774 795 1201 1277 1382 1132 986 1276 926 941 919 1016 1452 914 469 372 394 322 390 318 277 254 230 207 195 175 156 126
Wind_Speed
32 33 33 34 34 34 33 32 33 33 34 35 35 34 31 29 26 25 25 26 27 26 26 27 28 29 28 28 29 30 32 33 33 35 35 36 35 33 35 32 30 31
32 33 33 34 35 36 36 35 35 36 35 36 36 34 31 28 26 25 25 24 25 27 27 28 29 30 30 29 30 30 30 30 31 34 34 34 34 34 33 32 32 33
32 33 33 33 33 33 35 38 38 39 39 37 36 34 30 27 26 25 24 24 26 27 29 30 30 30 31 31 31 31 31 30 29 30 33 35 37 36 34 35 39 36
33 34 34 34 34 34 35 37 40 41 41 40 38 33 30 27 26 25 25 26 27 29 30 31 31 30 31 31 31 31 31 31 30 30 30 33 38 38 37 38 37 40
34 35 35 35 35 36 37 38 39 40 40 39 37 34 29 27 26 26 26 27 28 29 30 30 30 30 30 30 30 30 31 32 32 31 30 31 35 38 40 39 38 36
36 36 36 37 37 37 39 40 40 40 40 39 37 34 31 28 27 26 26 27 28 29 28 28 28 28 28 28 29 30 31 32 33 32 31 30 31 35 40 41 39 37
36 37 37 38 38 39 40 41 42 41 41 39 37 35 33 30 27 26 27 28 28 27 26 25 25 24 26 27 28 29 30 31 33 34 32 33 32 32 35 39 40 39
37 37 38 40 40 40 41 42 43 42 41 39 37 34 33 30 27 26 28 28 28 27 25 24 24 24 25 26 26 27 28 31 32 33 34 33 33 32 34 38 41 41
38 39 39 40 40 41 41 42 44 43 42 39 36 33 32 30 26 26 27 29 29 27 25 24 25 24 25 24 25 25 26 27 29 31 33 34 33 32 32 35 37 38
39 40 40 40 41 41 41 42 44 44 42 39 36 33 31 29 27 26 27 29 30 29 26 25 24 23 22 21 21 22 23 23 25 26 27 29 30 31 33 33 34 36
40 41 41 41 42 42 41 43 44 43 41 37 35 32 30 28 28 28 29 30 31 31 28 26 25 23 20 17 16 18 19 21 23 23 23 24 24 27 30 31 32 35
41 43 43 43 43 43 43 44 45 44 40 37 35 31 30 29 28 29 31 31 32 32 31 28 26 24 21 18 17 16 18 19 20 22 nan 21 20 22 26 29 31 32
42 44 45 44 45 45 46 46 46 43 39 35 33 31 30 29 28 29 31 32 32 33 31 29 27 25 23 21 19 18 18 18 18 18 nan nan nan nan nan nan 28 30
44 46 46 46 46 46 46 47 46 45 41 37 33 32 31 30 28 29 30 33 33 33 32 31 28 26 24 22 20 20 21 20 18 17 nan nan nan nan nan nan nan nan
46 47 48 47 46 46 46 46 45 44 41 37 33 32 33 31 30 29 29 30 32 32 32 33 31 29 27 24 21 20 22 21 18 15 nan nan nan nan nan nan nan nan
47 47 47 46 45 45 44 44 43 43 40 36 32 31 31 32 30 29 29 29 30 31 31 32 33 32 31 27 24 22 20 21 19 nan nan nan nan nan nan nan nan nan
48 47 47 45 44 44 44 43 42 41 39 36 33 32 31 32 31 28 27 29 30 30 30 31 32 32 31 28 25 23 21 19 nan nan nan nan nan nan nan nan nan nan
47 47 45 44 44 44 42 42 41 40 37 35 34 33 32 32 30 28 27 29 31 31 30 31 31 32 30 27 26 24 22 nan 19 nan nan nan nan nan nan nan nan nan
48 47 45 44 44 43 42 41 40 38 36 34 33 34 32 30 29 27 26 28 30 30 29 30 30 33 30 27 27 26 23 nan 20 nan nan nan nan nan nan nan nan nan
48 47 46 45 44 43 41 39 38 37 36 35 35 34 31 28 26 25 25 27 29 29 28 29 29 32 31 28 26 25 23 20 18 nan nan nan nan nan nan nan nan nan
49 48 47 46 44 43 40 39 37 36 36 36 35 33 29 27 25 24 24 25 26 27 27 28 29 32 29 28 28 26 23 19 18 nan nan nan nan nan nan nan nan nan
49 48 47 46 44 42 39 37 36 36 35 36 34 31 28 26 25 25 23 23 24 25 26 26 27 34 31 29 28 26 22 19 16 16 nan nan nan nan nan nan nan nan
48 47 45 44 43 40 37 35 35 35 35 36 32 29 26 24 24 23 22 22 23 24 24 24 24 29 32 31 29 27 24 20 16 15 16 13 nan nan nan nan nan nan
47 46 45 43 42 39 35 34 35 36 35 34 31 27 24 22 21 21 21 21 22 23 23 22 23 26 29 29 29 28 26 22 16 13 13 12 9 15 nan nan nan nan
45 45 44 42 39 37 36 35 35 34 33 32 29 26 23 22 21 21 21 21 22 22 24 22 22 23 26 27 29 28 26 22 16 11 10 12 9 12 14 13 15 nan
44 43 43 41 38 37 37 36 35 34 32 29 27 25 23 22 22 22 21 21 22 23 22 22 22 22 23 25 27 27 27 23 17 12 9 8 8 8 12 11 10 12
Wind_Direction
323 324 327 328 329 328 325 324 324 323 321 318 316 315 314 310 304 300 297 295 293 291 287 282 280 278 275 273 273 271 268 267 262 259 260 259 254 253 252 255 253 246
321 323 325 326 326 324 324 324 325 325 323 320 318 316 315 311 306 302 299 295 293 290 287 284 279 277 275 272 270 270 269 268 266 261 256 256 253 252 251 251 248 244
321 322 323 323 323 322 323 324 326 326 325 322 319 317 314 310 307 304 301 298 295 292 289 287 283 278 275 272 268 266 266 265 262 261 258 251 249 247 246 246 246 247
323 323 323 323 323 324 324 325 326 327 327 326 322 318 314 311 307 305 304 302 300 297 294 290 286 280 275 270 266 263 262 261 261 259 256 253 250 246 243 244 245 248
323 323 324 324 325 325 325 326 327 326 327 327 324 320 315 310 307 306 306 304 304 300 296 291 287 282 277 273 267 262 257 256 256 257 257 255 252 248 243 242 242 243
323 324 325 326 326 326 326 327 328 327 328 328 325 321 317 311 308 308 307 306 303 299 296 293 289 286 281 275 270 265 259 254 252 250 250 251 250 249 245 240 239 238
322 324 326 327 328 328 328 327 327 327 328 327 325 323 318 314 310 310 309 307 305 302 300 296 293 288 283 278 272 266 262 255 250 248 247 246 247 244 243 239 236 235
322 324 326 327 329 328 327 326 326 327 327 328 327 323 320 315 313 311 310 308 307 304 301 298 293 289 285 280 273 268 264 261 255 249 246 245 245 242 238 239 237 235
324 326 326 328 328 327 326 326 326 327 328 329 326 322 319 316 312 311 311 311 310 308 302 297 295 293 289 284 275 270 268 264 257 250 247 245 244 241 237 236 236 235
324 325 327 328 327 326 327 327 327 328 329 329 326 321 319 315 311 309 309 312 314 314 307 298 298 298 296 293 287 277 270 265 258 253 252 251 245 240 236 232 230 231
324 324 326 327 327 327 328 327 327 328 329 330 325 320 317 315 311 309 309 311 314 316 313 307 304 305 302 297 294 286 276 268 257 250 251 254 253 247 238 234 229 227
324 325 327 328 327 328 327 326 326 329 330 330 324 318 314 313 312 309 308 309 312 317 319 316 311 311 307 296 293 293 287 274 258 250 nan 247 250 247 241 234 231 227
325 326 326 326 327 327 326 325 326 328 329 328 322 315 312 310 309 309 308 308 310 314 319 319 314 313 311 304 297 292 286 283 273 256 nan nan nan nan nan nan 225 226
325 324 324 325 326 326 325 324 325 326 328 327 322 316 312 311 308 306 306 308 310 313 318 321 319 315 313 308 299 288 284 286 285 273 nan nan nan nan nan nan nan nan
322 322 322 323 325 325 325 324 323 325 327 326 321 314 310 310 309 307 308 309 310 313 317 321 320 317 314 310 301 290 285 286 283 269 nan nan nan nan nan nan nan nan
320 321 321 321 324 325 323 322 322 323 325 324 319 311 308 309 310 310 311 311 310 311 317 320 320 318 319 323 314 298 284 281 279 nan nan nan nan nan nan nan nan nan
319 319 319 321 324 324 322 320 320 321 323 322 316 310 308 308 310 311 312 312 311 312 316 319 319 317 322 323 315 303 288 276 nan nan nan nan nan nan nan nan nan nan
318 318 320 323 324 324 321 319 319 320 321 319 313 309 307 308 310 310 310 310 310 311 315 318 318 319 324 322 314 304 291 nan 295 nan nan nan nan nan nan nan nan nan
317 319 322 324 324 322 319 317 318 319 319 316 312 308 308 309 308 307 306 307 309 310 312 316 318 319 323 322 318 313 298 nan 299 nan nan nan nan nan nan nan nan nan
318 321 324 325 323 320 318 317 317 318 317 315 312 311 310 309 306 303 302 304 305 307 310 314 317 318 324 325 324 321 310 296 300 nan nan nan nan nan nan nan nan nan
322 324 325 323 321 319 317 317 317 317 316 313 310 310 309 307 303 299 300 302 303 305 309 312 315 318 323 324 326 329 321 309 304 nan nan nan nan nan nan nan nan nan
324 325 323 321 320 318 317 317 316 316 315 311 309 309 310 309 305 304 303 303 302 304 307 310 311 318 324 325 328 330 321 311 304 314 nan nan nan nan nan nan nan nan
324 323 321 321 319 317 316 316 315 315 313 311 309 308 309 307 304 302 302 304 305 305 307 308 308 315 322 326 331 331 324 317 315 321 331 325 nan nan nan nan nan nan
323 321 321 321 319 317 316 314 313 313 314 312 310 308 309 306 302 302 303 304 307 307 305 304 305 313 323 327 329 331 327 324 321 324 337 333 277 246 nan nan nan nan
321 321 322 321 319 316 313 312 311 311 312 313 311 309 309 306 303 302 301 302 304 304 307 309 303 309 322 329 330 332 330 328 329 327 339 342 308 258 252 256 248 nan
321 322 322 321 319 315 312 311 311 311 311 311 309 306 303 301 302 302 301 299 300 303 301 302 300 303 313 322 326 329 333 333 333 330 331 345 331 283 248 240 241 237